Change the Weather History Date:

Sunday, September 4, 2011

  Actual Average Record
Temperature  
Mean Temperature 78 °F -  
Max Temperature 87 °F 78 °F 89 °F (2008)
Min Temperature 69 °F 59 °F 33 °F (1996)
Cooling Degree Days 13    
Month to date cooling degree days 35  
Year to date cooling degree days 1216  
Growing Degree Days 28 (Base 50)    
Moisture  
Dew Point 69 °F    
Average Humidity 76    
Maximum Humidity 97    
Minimum Humidity 55    
Precipitation  
Precipitation T in - - ()
Month to date precipitation 0.14  
Year to date precipitation 28.79  
Sea Level Pressure  
Sea Level Pressure 29.88 in    
Wind  
Wind Speed 3 mph (SSW)    
Max Wind Speed 14 mph    
Max Gust Speed 17 mph    
Visibility 5 miles    
Events Fog , Rain , Thunderstorm    
Averages and records for this station are not official NWS values.
T = Trace of Precipitation, MM = Missing Value Source: NWS Daily Summary

Daily Weather History Graph

Daily Weather History Graph

Search for Another Location

Airport or City:

Trip Planner

Search our weather history database for the weather conditions in past years. The results will help you decide how hot, cold, wet, or windy it might be!

Date:

Astronomy

Sep. 04, 2011 Rise Set
Actual Time 6:41 AM EDT 7:37 PM EDT
Civil Twilight 6:14 AM EDT 8:05 PM EDT
Nautical Twilight 5:41 AM EDT 8:37 PM EDT
Astronomical Twilight 5:07 AM EDT 9:11 PM EDT
Moon 2:22 PM EDT (9/4) 11:57 PM EDT (9/4)
Length of Visible Light 13h 51m
Length of Day
12h 56m
Waxing Crescent, 49% of the Moon is Illuminated
Sep 4
Waxing Crescent
Sep 4
First Quarter
Sep 12
Full
Sep 20
Last Quarter
Sep 27
New

Hourly Weather History & Observations

Time (EDT) Temp. Heat Index Dew Point Humidity Pressure Visibility Wind Dir Wind Speed Gust Speed Precip Events Conditions
12:53 AM 73.0 °F - 70.0 °F 90% 29.95 in 5.0 mi Calm Calm - N/A   Clear
1:53 AM 72.0 °F - 69.1 °F 91% 29.93 in 4.0 mi Calm Calm - N/A   Clear
2:53 AM 71.1 °F - 69.1 °F 93% 29.92 in 4.0 mi Calm Calm - N/A   Clear
3:53 AM 72.0 °F - 69.1 °F 91% 29.91 in 4.0 mi Calm Calm - N/A   Clear
4:53 AM 71.1 °F - 69.1 °F 93% 29.91 in 3.0 mi Calm Calm - N/A   Clear
5:53 AM 71.1 °F - 69.1 °F 93% 29.91 in 4.0 mi Calm Calm - N/A   Clear
7:13 AM 69.8 °F - 66.2 °F 88% 29.92 in 1.5 mi Calm Calm - N/A   Clear
7:42 AM 69.8 °F - 68.0 °F 94% 29.94 in 1.8 mi NW 3.5 mph - N/A   Mostly Cloudy
7:53 AM 70.0 °F - 68.0 °F 93% 29.94 in 1.5 mi Calm Calm - N/A   Mostly Cloudy
8:14 AM 71.6 °F - 69.8 °F 94% 29.93 in 2.0 mi Calm Calm - N/A   Partly Cloudy
8:37 AM 71.6 °F - 69.8 °F 94% 29.93 in 3.0 mi Calm Calm - N/A   Clear
8:53 AM 72.0 °F - 70.0 °F 93% 29.94 in 3.0 mi Calm Calm - N/A   Clear
9:08 AM 71.6 °F - 69.8 °F 94% 29.94 in 2.5 mi Calm Calm - N/A   Partly Cloudy
9:33 AM 73.4 °F - 69.8 °F 88% 29.93 in 3.0 mi Calm Calm - N/A   Partly Cloudy
9:53 AM 73.9 °F - 70.0 °F 87% 29.95 in 4.0 mi South 3.5 mph - N/A   Partly Cloudy
10:53 AM 77.0 °F - 70.0 °F 79% 29.94 in 6.0 mi South 3.5 mph - N/A   Haze
11:53 AM 81.0 °F 84.9 °F 71.1 °F 72% 29.92 in 7.0 mi SSW 3.5 mph - N/A   Clear
12:53 PM 86.0 °F 91.5 °F 71.1 °F 61% 29.90 in 8.0 mi Calm Calm - N/A   Clear
1:53 PM 87.1 °F 92.0 °F 70.0 °F 57% 29.88 in 8.0 mi South 10.4 mph - N/A   Clear
2:53 PM 87.1 °F 92.0 °F 70.0 °F 57% 29.87 in 7.0 mi South 8.1 mph - N/A   Partly Cloudy
3:53 PM 84.0 °F 89.6 °F 72.0 °F 67% 29.85 in 7.0 mi South 11.5 mph - N/A   Scattered Clouds
4:53 PM 86.0 °F 91.5 °F 71.1 °F 61% 29.82 in 7.0 mi SSE 13.8 mph 17.3 mph 0.00 in   Clear
5:53 PM 84.9 °F 90.7 °F 72.0 °F 65% 29.81 in 7.0 mi SSE 11.5 mph - N/A   Partly Cloudy
6:53 PM 84.0 °F 89.0 °F 71.1 °F 65% 29.81 in 6.0 mi South 8.1 mph - N/A   Haze
7:53 PM 82.0 °F 86.3 °F 71.1 °F 69% 29.81 in 7.0 mi South 8.1 mph - N/A   Clear
8:16 PM 82.4 °F 87.2 °F 71.6 °F 70% 29.81 in 7.0 mi Calm Calm - N/A Thunderstorm Partly Cloudy
8:38 PM 73.4 °F - 66.2 °F 78% 29.82 in 10.0 mi NNW 24.2 mph 29.9 mph N/A Thunderstorm Thunderstorm
8:53 PM 72.0 °F - 66.0 °F 81% 29.85 in 10.0 mi North 13.8 mph - N/A Thunderstorm Thunderstorm
8:58 PM 71.6 °F - 69.8 °F 94% 29.83 in 2.5 mi West 23.0 mph 33.4 mph 0.07 in Rain , Thunderstorm Light Thunderstorms and Rain
9:02 PM 71.6 °F - 69.8 °F 94% 29.83 in 1.0 mi WSW 15.0 mph 33.4 mph 0.28 in Rain , Thunderstorm Heavy Thunderstorms and Rain
9:05 PM 71.6 °F - 69.8 °F 94% 29.83 in 0.5 mi WSW 18.4 mph 33.4 mph 0.48 in Fog , Rain , Thunderstorm Heavy Thunderstorms and Rain
9:18 PM 75.2 °F - 68.0 °F 78% 29.83 in 2.0 mi Calm Calm - 0.83 in Rain , Thunderstorm Light Thunderstorms and Rain
9:25 PM 73.4 °F - 71.6 °F 94% 29.83 in 9.0 mi ESE 4.6 mph - 0.83 in Rain , Thunderstorm Light Thunderstorms and Rain
9:53 PM 73.0 °F - 71.1 °F 93% 29.84 in 7.0 mi SSE 8.1 mph - 0.83 in Thunderstorm Overcast
10:14 PM 71.6 °F - 69.8 °F 94% 29.86 in 8.0 mi West 11.5 mph - N/A Thunderstorm Thunderstorm
10:35 PM 69.8 °F - 66.2 °F 88% 29.84 in 5.0 mi NW 9.2 mph - 0.06 in Rain , Thunderstorm Rain
10:53 PM 69.1 °F - 66.9 °F 93% 29.85 in 10.0 mi NNW 5.8 mph - 0.07 in Rain , Thunderstorm Light Rain
11:21 PM 69.8 °F - 66.2 °F 88% 29.84 in 2.5 mi Calm Calm - 0.11 in Rain , Thunderstorm Light Thunderstorms and Rain
11:28 PM 69.8 °F - 66.2 °F 88% 29.85 in 8.0 mi Calm Calm - 0.12 in Rain , Thunderstorm Light Rain
11:46 PM 69.8 °F - 66.2 °F 88% 29.85 in 5.0 mi Calm Calm - 0.14 in Rain , Thunderstorm Light Rain